• în România
  • Lista ţărilor
  • Pe 7 zile
  • Temperatura apei
  • Hartă satelitară
  • Meteo pe hartă
  • Widget-uri
  • user-avatar
    Intrare

    Meteo pe oră la Petrov

    Astăzi, 16 August, Joi

    Timp Temperatura Precipitaţii Vânt Presiune Umiditate
    00:00 +20°C° 0 mm 2 m/s 744 mmHg 51%
    01:00 +19°C° 0 mm 2 m/s 744 mmHg 53%
    02:00 +19°C° 0 mm 2 m/s 744 mmHg 54%
    03:00 +18°C° 0 mm 2 m/s 744 mmHg 55%
    04:00 +18°C° 0 mm 2 m/s 744 mmHg 57%
    05:00 +19°C° 0 mm 2 m/s 744 mmHg 58%
    06:00 +19°C° 0 mm 2 m/s 744 mmHg 59%
    07:00 +21°C° 0 mm 3 m/s 745 mmHg 54%
    08:00 +23°C° 0 mm 4 m/s 745 mmHg 49%
    09:00 +27°C° 0 mm 4 m/s 745 mmHg 44%
    10:00 +28°C° 0 mm 4 m/s 745 mmHg 42%
    11:00 +29°C° 0 mm 4 m/s 745 mmHg 40%
    12:00 +30°C° 0 mm 4 m/s 745 mmHg 37%
    13:00 +30°C° 0 mm 4 m/s 744 mmHg 37%
    14:00 +31°C° 0 mm 3 m/s 744 mmHg 36%
    15:00 +31°C° 0 mm 3 m/s 744 mmHg 36%
    16:00 +31°C° 0 mm 2 m/s 744 mmHg 40%
    17:00 +30°C° 0 mm 2 m/s 743 mmHg 43%
    18:00 +29°C° 0 mm 2 m/s 743 mmHg 47%
    19:00 +28°C° 0 mm 1 m/s 743 mmHg 49%
    20:00 +26°C° 0 mm 1 m/s 743 mmHg 52%
    21:00 +24°C° 0 mm 1 m/s 743 mmHg 55%
    22:00 +24°C° 0 mm 1 m/s 743 mmHg 56%
    23:00 +23°C° 0 mm 1 m/s 743 mmHg 57%

    Mâine, 17 August, Vineri

    Timp Temperatura Precipitaţii Vânt Presiune Umiditate
    00:00 +23°C° 0 mm 1 m/s 743 mmHg 58%
    01:00 +22°C° 0 mm 1 m/s 743 mmHg 59%
    02:00 +22°C° 0 mm 1 m/s 743 mmHg 60%
    03:00 +21°C° 0 mm 1 m/s 743 mmHg 61%
    04:00 +21°C° 0,2 mm 1 m/s 743 mmHg 64%
    05:00 +21°C° 0,2 mm 1 m/s 743 mmHg 67%
    06:00 +21°C° 0,2 mm 1 m/s 743 mmHg 70%
    07:00 +23°C° 0 mm 2 m/s 743 mmHg 66%
    08:00 +25°C° 0 mm 2 m/s 743 mmHg 62%
    09:00 +26°C° 0 mm 2 m/s 743 mmHg 59%
    10:00 +27°C° 0,5 mm 3 m/s 743 mmHg 57%
    11:00 +28°C° 0,5 mm 3 m/s 743 mmHg 55%
    12:00 +28°C° 0,5 mm 3 m/s 743 mmHg 53%
    13:00 +28°C° 0,4 mm 4 m/s 743 mmHg 56%
    14:00 +27°C° 0,4 mm 5 m/s 743 mmHg 59%
    15:00 +27°C° 0,4 mm 5 m/s 743 mmHg 62%
    16:00 +25°C° 0,1 mm 5 m/s 743 mmHg 64%
    17:00 +23°C° 0,1 mm 5 m/s 743 mmHg 66%
    18:00 +22°C° 0,1 mm 5 m/s 743 mmHg 68%
    19:00 +21°C° 0 mm 5 m/s 744 mmHg 68%
    20:00 +20°C° 0 mm 4 m/s 744 mmHg 68%
    21:00 +18°C° 0 mm 4 m/s 744 mmHg 68%
    22:00 +17°C° 0 mm 4 m/s 744 mmHg 70%
    23:00 +17°C° 0 mm 4 m/s 745 mmHg 71%

    Poimâine, 18 August, Sâmbătă

    Timp Temperatura Precipitaţii Vânt Presiune Umiditate
    00:00 +15°C° 0 mm 4 m/s 745 mmHg 72%
    01:00 +14°C° 0 mm 4 m/s 745 mmHg 75%
    02:00 +14°C° 0 mm 4 m/s 745 mmHg 77%
    03:00 +13°C° 0 mm 4 m/s 745 mmHg 79%
    04:00 +13°C° 0 mm 4 m/s 745 mmHg 79%
    05:00 +13°C° 0 mm 4 m/s 745 mmHg 79%
    06:00 +13°C° 0 mm 4 m/s 745 mmHg 79%
    07:00 +15°C° 0 mm 5 m/s 746 mmHg 71%
    08:00 +17°C° 0 mm 5 m/s 746 mmHg 62%
    09:00 +20°C° 0 mm 5 m/s 746 mmHg 54%
    10:00 +21°C° 0 mm 5 m/s 746 mmHg 51%
    11:00 +21°C° 0 mm 5 m/s 746 mmHg 48%
    12:00 +22°C° 0 mm 5 m/s 746 mmHg 44%
    13:00 +23°C° 0 mm 5 m/s 746 mmHg 44%
    14:00 +23°C° 0 mm 5 m/s 746 mmHg 43%
    15:00 +23°C° 0 mm 5 m/s 746 mmHg 43%
    16:00 +22°C° 0 mm 4 m/s 746 mmHg 47%
    17:00 +22°C° 0 mm 4 m/s 746 mmHg 50%
    18:00 +21°C° 0 mm 3 m/s 746 mmHg 54%
    19:00 +19°C° 0 mm 3 m/s 746 mmHg 58%
    20:00 +18°C° 0 mm 3 m/s 746 mmHg 62%
    21:00 +16°C° 0 mm 3 m/s 746 mmHg 67%
    22:00 +14°C° 0 mm 3 m/s 747 mmHg 68%
    23:00 +13°C° 0 mm 3 m/s 747 mmHg 69%

    19 August, Duminică

    Timp Temperatura Precipitaţii Vânt Presiune Umiditate
    00:00 +13°C° 0 mm 3 m/s 747 mmHg 70%
    01:00 +12°C° 0 mm 3 m/s 747 mmHg 71%
    02:00 +12°C° 0 mm 3 m/s 747 mmHg 73%
    03:00 +11°C° 0 mm 3 m/s 747 mmHg 74%
    04:00 +11°C° 0 mm 3 m/s 747 mmHg 75%
    05:00 +11°C° 0 mm 3 m/s 747 mmHg 76%
    06:00 +11°C° 0 mm 3 m/s 747 mmHg 76%
    07:00 +13°C° 0 mm 3 m/s 747 mmHg 69%
    08:00 +15°C° 0 mm 4 m/s 747 mmHg 63%
    09:00 +18°C° 0 mm 4 m/s 748 mmHg 56%
    10:00 +19°C° 0 mm 4 m/s 747 mmHg 52%
    11:00 +20°C° 0 mm 4 m/s 747 mmHg 48%
    12:00 +21°C° 0 mm 4 m/s 747 mmHg 44%
    13:00 +22°C° 0 mm 4 m/s 747 mmHg 44%
    14:00 +22°C° 0 mm 4 m/s 746 mmHg 43%
    15:00 +22°C° 0 mm 4 m/s 746 mmHg 43%
    16:00 +21°C° 0 mm 4 m/s 746 mmHg 46%
    17:00 +21°C° 0 mm 3 m/s 746 mmHg 50%
    18:00 +20°C° 0 mm 3 m/s 746 mmHg 53%
    19:00 +18°C° 0 mm 3 m/s 746 mmHg 56%
    20:00 +17°C° 0 mm 2 m/s 746 mmHg 59%
    21:00 +15°C° 0 mm 2 m/s 746 mmHg 62%
    22:00 +14°C° 0 mm 2 m/s 746 mmHg 64%
    23:00 +14°C° 0 mm 2 m/s 746 mmHg 65%

    20 August, Luni

    Timp Temperatura Precipitaţii Vânt Presiune Umiditate
    00:00 +13°C° 0 mm 2 m/s 746 mmHg 67%
    01:00 +13°C° 0 mm 1 m/s 746 mmHg 69%
    02:00 +12°C° 0 mm 1 m/s 746 mmHg 71%
    03:00 +12°C° 0 mm 1 m/s 746 mmHg 73%
    04:00 +12°C° 0 mm 1 m/s 746 mmHg 73%
    05:00 +12°C° 0 mm 1 m/s 747 mmHg 74%
    06:00 +12°C° 0 mm 1 m/s 747 mmHg 75%
    07:00 +14°C° 0 mm 1 m/s 747 mmHg 68%
    08:00 +16°C° 0 mm 2 m/s 747 mmHg 62%
    09:00 +18°C° 0 mm 2 m/s 747 mmHg 55%
    10:00 +19°C° 0 mm 2 m/s 747 mmHg 50%
    11:00 +20°C° 0 mm 2 m/s 747 mmHg 45%
    12:00 +21°C° 0 mm 2 m/s 747 mmHg 40%
    13:00 +23°C° 0 mm 1 m/s 747 mmHg 38%
    14:00 +24°C° 0 mm 1 m/s 746 mmHg 36%
    15:00 +24°C° 0 mm 1 m/s 746 mmHg 35%
    16:00 +24°C° 0 mm 1 m/s 746 mmHg 37%
    17:00 +23°C° 0 mm 1 m/s 746 mmHg 40%
    18:00 +22°C° 0 mm 1 m/s 746 mmHg 43%
    19:00 +21°C° 0 mm 1 m/s 746 mmHg 45%
    20:00 +19°C° 0 mm 1 m/s 746 mmHg 47%
    21:00 +16°C° 0 mm 1 m/s 746 mmHg 49%
    22:00 +16°C° 0 mm 1 m/s 746 mmHg 50%
    23:00 +15°C° 0 mm 1 m/s 746 mmHg 51%

    21 August, Marţi

    Timp Temperatura Precipitaţii Vânt Presiune Umiditate
    00:00 +15°C° 0 mm 1 m/s 746 mmHg 51%
    01:00 +15°C° 0 mm 1 m/s 746 mmHg 52%
    02:00 +14°C° 0 mm 1 m/s 746 mmHg 53%
    03:00 +14°C° 0 mm 1 m/s 746 mmHg 54%
    04:00 +14°C° 0 mm 1 m/s 746 mmHg 55%
    05:00 +14°C° 0 mm 1 m/s 747 mmHg 56%
    06:00 +14°C° 0 mm 1 m/s 747 mmHg 57%
    07:00 +18°C° 0 mm 1 m/s 747 mmHg 51%
    08:00 +19°C° 0 mm 2 m/s 747 mmHg 46%
    09:00 +21°C° 0 mm 2 m/s 747 mmHg 41%
    10:00 +23°C° 0 mm 2 m/s 747 mmHg 39%
    11:00 +24°C° 0 mm 2 m/s 747 mmHg 36%
    12:00 +25°C° 0 mm 3 m/s 747 mmHg 34%
    13:00 +26°C° 0 mm 3 m/s 747 mmHg 33%
    14:00 +26°C° 0 mm 2 m/s 746 mmHg 32%
    15:00 +27°C° 0 mm 2 m/s 746 mmHg 32%
    16:00 +26°C° 0 mm 2 m/s 746 mmHg 35%
    17:00 +25°C° 0 mm 2 m/s 746 mmHg 39%
    18:00 +24°C° 0 mm 1 m/s 746 mmHg 43%
    19:00 +23°C° 0 mm 1 m/s 746 mmHg 45%
    20:00 +21°C° 0 mm 1 m/s 746 mmHg 47%
    21:00 +19°C° 0 mm 1 m/s 746 mmHg 49%
    22:00 +19°C° 0 mm 1 m/s 746 mmHg 50%
    23:00 +19°C° 0 mm 1 m/s 746 mmHg 50%
    Arată mai mult